Precipitable_Water
1.41 1.37 1.34 1.32 1.33 1.35 1.37 1.36 1.37 1.38 1.36 1.33 1.23 1.18 1.11 1.09 0.98 0.90 0.85 0.87 0.85 0.99 1.09 1.02 1.18 1.33 1.39 1.40 1.44 1.39 1.32 1.31 1.30 1.32 1.41 1.49 1.56 1.65 1.72 1.78 1.85 1.90 1.92 1.93 1.95 1.96 1.97 1.96 1.95 1.95 1.95 1.95 1.97 1.98 1.98 1.96 1.94 1.88 1.76 1.67 1.63 1.60 1.58 1.55 1.53 1.52 1.51 1.52 1.50 1.48 1.45 1.41 1.39 1.38
1.47 1.43 1.40 1.36 1.29 1.34 1.33 1.34 1.39 1.40 1.38 1.35 1.31 1.25 1.27 1.26 1.12 1.06 0.91 0.86 0.93 0.91 1.05 1.17 1.15 1.27 1.30 1.36 1.36 1.36 1.31 1.33 1.31 1.36 1.44 1.51 1.57 1.66 1.72 1.78 1.85 1.90 1.92 1.93 1.95 1.95 1.94 1.92 1.90 1.90 1.91 1.93 1.95 1.96 1.95 1.94 1.90 1.79 1.65 1.58 1.56 1.54 1.52 1.50 1.49 1.49 1.49 1.50 1.50 1.49 1.46 1.41 1.37 1.35
1.53 1.47 1.41 1.38 1.28 1.30 1.30 1.33 1.37 1.41 1.40 1.36 1.35 1.30 1.29 1.30 1.27 1.16 1.06 0.88 0.99 1.11 1.03 1.18 1.33 1.31 1.33 1.37 1.34 1.33 1.34 1.33 1.33 1.37 1.44 1.50 1.58 1.66 1.73 1.78 1.84 1.89 1.91 1.92 1.93 1.93 1.91 1.89 1.87 1.90 1.93 1.93 1.92 1.92 1.91 1.88 1.82 1.72 1.63 1.54 1.50 1.48 1.46 1.45 1.44 1.44 1.45 1.46 1.46 1.44 1.42 1.40 1.38 1.34
1.55 1.49 1.41 1.38 1.32 1.32 1.31 1.30 1.34 1.37 1.41 1.40 1.34 1.31 1.30 1.31 1.31 1.24 1.14 1.01 0.97 1.19 1.17 1.23 1.32 1.40 1.37 1.41 1.34 1.30 1.29 1.34 1.34 1.39 1.44 1.50 1.56 1.64 1.71 1.78 1.85 1.90 1.92 1.93 1.93 1.91 1.88 1.84 1.84 1.87 1.91 1.91 1.90 1.89 1.87 1.82 1.72 1.62 1.55 1.47 1.43 1.41 1.41 1.39 1.37 1.35 1.33 1.32 1.31 1.31 1.33 1.35 1.36 1.35
1.53 1.50 1.45 1.42 1.39 1.39 1.31 1.31 1.36 1.38 1.39 1.40 1.38 1.36 1.33 1.29 1.31 1.26 1.17 1.05 1.03 1.15 1.31 1.30 1.32 1.40 1.40 1.31 1.38 1.29 1.25 1.23 1.27 1.37 1.45 1.53 1.54 1.60 1.69 1.77 1.85 1.89 1.91 1.92 1.90 1.87 1.83 1.82 1.81 1.82 1.87 1.89 1.88 1.85 1.78 1.68 1.58 1.50 1.45 1.40 1.36 1.34 1.32 1.30 1.28 1.26 1.24 1.23 1.21 1.20 1.19 1.20 1.23 1.29
1.48 1.47 1.43 1.42 1.44 1.44 1.35 1.35 1.36 1.38 1.39 1.39 1.37 1.35 1.32 1.30 1.30 1.34 1.21 1.14 1.08 1.01 1.20 1.24 1.36 1.33 1.39 1.21 1.35 1.26 1.19 1.18 1.23 1.27 1.37 1.47 1.55 1.58 1.68 1.77 1.82 1.87 1.91 1.90 1.87 1.85 1.83 1.80 1.79 1.78 1.81 1.83 1.79 1.73 1.67 1.60 1.50 1.41 1.33 1.27 1.22 1.20 1.20 1.20 1.21 1.21 1.20 1.17 1.14 1.10 1.07 1.05 1.07 1.13
1.43 1.41 1.39 1.39 1.43 1.46 1.38 1.37 1.36 1.38 1.36 1.38 1.34 1.32 1.34 1.30 1.31 1.35 1.34 1.23 1.12 1.08 1.11 1.23 1.20 1.23 1.28 1.23 1.23 1.28 1.27 1.25 1.25 1.25 1.32 1.40 1.47 1.58 1.69 1.74 1.80 1.84 1.88 1.90 1.89 1.85 1.81 1.79 1.77 1.74 1.71 1.70 1.69 1.67 1.62 1.54 1.45 1.35 1.27 1.22 1.19 1.18 1.17 1.16 1.16 1.15 1.12 1.10 1.08 1.06 1.05 1.04 1.05 1.06
1.38 1.37 1.36 1.37 1.41 1.42 1.36 1.35 1.36 1.38 1.39 1.37 1.36 1.34 1.36 1.35 1.35 1.39 1.40 1.37 1.25 1.19 1.09 1.17 1.18 1.23 1.19 1.23 1.31 1.30 1.27 1.22 1.19 1.22 1.32 1.45 1.43 1.51 1.62 1.69 1.72 1.80 1.89 1.90 1.86 1.80 1.75 1.73 1.70 1.65 1.61 1.62 1.62 1.60 1.56 1.49 1.41 1.33 1.25 1.20 1.18 1.15 1.13 1.11 1.10 1.08 1.06 1.03 1.00 0.98 0.98 0.99 1.02 1.04
1.36 1.35 1.33 1.36 1.39 1.38 1.32 1.31 1.32 1.36 1.34 1.38 1.38 1.36 1.39 1.39 1.42 1.42 1.40 1.37 1.34 1.23 1.13 1.14 1.21 1.25 1.23 1.25 1.25 1.27 1.15 1.15 1.15 1.18 1.23 1.31 1.35 1.42 1.58 1.67 1.71 1.77 1.84 1.82 1.78 1.72 1.69 1.66 1.60 1.56 1.55 1.56 1.56 1.54 1.51 1.45 1.36 1.26 1.21 1.18 1.15 1.12 1.10 1.07 1.04 1.02 1.00 0.98 0.96 0.93 0.92 0.92 0.95 0.98
1.34 1.31 1.32 1.34 1.36 1.34 1.28 1.26 1.29 1.32 1.31 1.34 1.32 1.32 1.36 1.39 1.40 1.37 1.37 1.36 1.32 1.26 1.20 1.17 1.11 1.17 1.14 1.15 1.17 1.23 1.21 1.10 1.01 1.01 1.13 1.23 1.31 1.32 1.40 1.56 1.64 1.74 1.75 1.71 1.70 1.69 1.67 1.57 1.53 1.52 1.51 1.52 1.51 1.50 1.47 1.41 1.29 1.21 1.18 1.16 1.12 1.08 1.05 1.01 0.98 0.95 0.93 0.92 0.90 0.89 0.88 0.88 0.90 0.93
1.35 1.33 1.32 1.31 1.32 1.30 1.29 1.27 1.26 1.28 1.29 1.30 1.30 1.31 1.32 1.36 1.34 1.30 1.28 1.28 1.23 1.20 1.15 1.15 1.14 1.10 1.17 1.19 1.06 1.19 1.22 1.17 1.11 1.00 0.99 1.00 1.20 1.29 1.32 1.36 1.55 1.69 1.73 1.75 1.72 1.68 1.63 1.53 1.50 1.50 1.50 1.49 1.48 1.46 1.42 1.31 1.22 1.19 1.17 1.13 1.09 1.04 1.00 0.98 0.95 0.92 0.88 0.84 0.79 0.76 0.77 0.81 0.85 0.88
1.33 1.34 1.33 1.31 1.30 1.29 1.30 1.29 1.30 1.30 1.26 1.30 1.27 1.32 1.32 1.30 1.26 1.21 1.21 1.20 1.17 1.12 1.10 1.07 1.05 1.10 1.09 1.15 1.21 1.20 1.14 1.04 1.03 1.10 1.04 0.94 1.02 1.14 1.29 1.38 1.36 1.56 1.67 1.65 1.64 1.67 1.62 1.53 1.49 1.48 1.48 1.46 1.44 1.41 1.34 1.26 1.20 1.17 1.15 1.10 1.05 1.00 0.97 0.94 0.90 0.85 0.81 0.78 0.74 0.72 0.70 0.71 0.77 0.83
1.29 1.32 1.32 1.30 1.29 1.30 1.30 1.31 1.32 1.32 1.33 1.29 1.24 1.28 1.32 1.28 1.24 1.20 1.18 1.15 1.13 1.10 1.06 1.02 1.08 1.06 1.05 1.08 1.08 1.04 1.00 0.96 0.95 1.07 1.12 1.05 1.12 1.19 1.22 1.37 1.50 1.58 1.57 1.64 1.59 1.57 1.57 1.44 1.42 1.43 1.41 1.42 1.40 1.36 1.30 1.24 1.19 1.16 1.13 1.07 1.01 0.97 0.93 0.89 0.85 0.82 0.80 0.77 0.74 0.72 0.70 0.68 0.70 0.77
1.22 1.24 1.26 1.27 1.27 1.28 1.29 1.28 1.27 1.27 1.28 1.30 1.27 1.24 1.25 1.23 1.20 1.17 1.14 1.11 1.09 1.06 1.00 0.98 1.00 0.97 0.97 1.01 1.07 1.07 1.09 1.13 1.13 1.10 1.10 1.00 1.07 1.13 1.15 1.28 1.45 1.58 1.58 1.54 1.48 1.52 1.57 1.43 1.38 1.38 1.34 1.38 1.37 1.33 1.30 1.24 1.19 1.15 1.13 1.06 0.98 0.94 0.91 0.87 0.84 0.82 0.80 0.77 0.74 0.72 0.70 0.69 0.69 0.72
1.12 1.17 1.22 1.23 1.24 1.26 1.25 1.25 1.23 1.22 1.22 1.22 1.22 1.22 1.23 1.23 1.17 1.10 1.06 1.04 1.06 1.02 0.98 1.00 1.00 0.98 0.96 1.01 1.11 1.12 1.14 1.15 1.10 1.07 1.10 1.06 1.06 1.01 0.95 0.91 1.22 1.58 1.55 1.50 1.44 1.43 1.54 1.45 1.33 1.35 1.36 1.38 1.38 1.35 1.29 1.24 1.19 1.14 1.11 1.04 0.96 0.92 0.91 0.88 0.85 0.84 0.81 0.78 0.74 0.72 0.71 0.71 0.71 0.73
1.09 1.11 1.15 1.20 1.22 1.22 1.20 1.19 1.20 1.20 1.19 1.19 1.18 1.18 1.18 1.19 1.19 1.18 1.10 1.00 0.96 0.96 0.93 0.94 0.99 1.03 1.01 1.04 1.12 1.14 1.16 1.12 1.13 1.13 1.11 1.07 1.03 1.01 1.00 1.03 1.04 1.39 1.56 1.44 1.37 1.35 1.49 1.46 1.39 1.36 1.40 1.44 1.45 1.40 1.31 1.24 1.18 1.14 1.09 1.01 0.95 0.91 0.90 0.89 0.87 0.85 0.83 0.79 0.75 0.72 0.72 0.73 0.74 0.75
1.06 1.08 1.09 1.12 1.17 1.19 1.19 1.20 1.18 1.16 1.15 1.16 1.16 1.16 1.14 1.13 1.11 1.08 1.09 1.11 1.05 1.03 0.98 0.94 0.95 1.02 1.08 1.08 1.10 1.21 1.21 1.28 1.13 1.12 1.08 1.09 1.08 1.08 1.05 1.09 1.16 1.36 1.57 1.46 1.37 1.32 1.43 1.45 1.38 1.36 1.45 1.50 1.51 1.46 1.35 1.26 1.19 1.14 1.07 0.99 0.94 0.91 0.89 0.90 0.89 0.88 0.86 0.82 0.76 0.73 0.73 0.74 0.75 0.76
1.07 1.07 1.07 1.05 1.05 1.10 1.14 1.16 1.15 1.14 1.12 1.13 1.14 1.14 1.12 1.08 1.06 1.07 1.06 1.05 1.05 1.06 1.00 0.96 0.90 0.99 1.16 1.09 1.15 1.27 1.35 1.25 1.16 1.13 1.09 1.14 1.09 1.08 1.10 1.23 1.28 1.45 1.62 1.49 1.44 1.33 1.42 1.47 1.40 1.37 1.46 1.52 1.53 1.51 1.39 1.28 1.21 1.15 1.06 0.98 0.94 0.91 0.90 0.91 0.92 0.91 0.89 0.84 0.79 0.75 0.74 0.74 0.76 0.77
1.11 1.10 1.10 1.09 1.05 1.06 1.08 1.10 1.11 1.10 1.10 1.11 1.11 1.10 1.08 1.07 1.05 1.05 1.06 1.05 1.04 1.05 1.06 1.04 1.04 1.06 1.14 1.15 1.19 1.28 1.38 1.34 1.31 1.31 1.25 1.24 1.20 1.21 1.28 1.26 1.34 1.43 1.65 1.68 1.54 1.25 1.41 1.48 1.38 1.38 1.46 1.51 1.53 1.56 1.45 1.33 1.25 1.16 1.06 0.98 0.94 0.93 0.92 0.92 0.93 0.93 0.90 0.86 0.81 0.76 0.73 0.74 0.76 0.78
1.16 1.16 1.15 1.12 1.09 1.07 1.07 1.09 1.11 1.12 1.13 1.10 1.08 1.06 1.06 1.06 1.06 1.04 1.07 1.11 1.14 1.13 1.13 1.14 1.12 1.12 1.13 1.16 1.19 1.27 1.34 1.37 1.39 1.40 1.39 1.33 1.24 1.16 1.09 1.02 1.18 1.26 1.55 1.67 1.54 1.38 1.38 1.46 1.35 1.38 1.48 1.51 1.51 1.56 1.49 1.36 1.28 1.17 1.07 1.01 0.99 0.97 0.94 0.93 0.94 0.94 0.91 0.86 0.82 0.77 0.73 0.73 0.74 0.76
1.20 1.19 1.19 1.18 1.15 1.13 1.10 1.11 1.12 1.13 1.16 1.11 1.07 1.04 1.03 1.05 1.03 0.99 1.03 1.10 1.13 1.15 1.19 1.21 1.21 1.19 1.16 1.14 1.16 1.22 1.31 1.34 1.39 1.34 1.20 1.08 1.15 1.09 0.98 1.00 1.07 1.15 1.41 1.57 1.58 1.47 1.36 1.45 1.41 1.37 1.43 1.48 1.49 1.52 1.46 1.36 1.27 1.20 1.11 1.05 1.01 0.99 0.97 0.94 0.94 0.94 0.91 0.87 0.83 0.78 0.74 0.72 0.72 0.73
1.22 1.22 1.22 1.22 1.20 1.17 1.15 1.16 1.16 1.17 1.18 1.12 1.08 1.06 1.03 1.01 0.98 0.95 0.98 1.04 1.09 1.15 1.19 1.21 1.20 1.19 1.17 1.16 1.15 1.17 1.22 1.28 1.33 1.23 1.04 1.10 1.18 1.07 1.06 0.98 1.04 1.15 1.28 1.42 1.64 1.45 1.38 1.49 1.45 1.36 1.42 1.49 1.55 1.52 1.43 1.33 1.28 1.21 1.14 1.08 1.04 1.00 0.97 0.94 0.94 0.94 0.91 0.88 0.85 0.79 0.74 0.72 0.71 0.72
1.21 1.21 1.24 1.24 1.24 1.21 1.19 1.20 1.20 1.21 1.21 1.15 1.12 1.09 1.06 0.99 0.94 0.92 0.96 0.98 1.01 1.07 1.10 1.12 1.14 1.12 1.14 1.17 1.19 1.20 1.25 1.27 1.28 1.26 1.20 1.24 1.18 1.07 1.08 1.07 1.07 1.01 1.10 1.41 1.64 1.37 1.38 1.41 1.44 1.40 1.32 1.32 1.52 1.54 1.43 1.36 1.30 1.20 1.14 1.11 1.07 1.02 0.97 0.95 0.93 0.93 0.92 0.90 0.87 0.80 0.75 0.72 0.71 0.69
1.16 1.20 1.21 1.23 1.23 1.22 1.21 1.20 1.20 1.22 1.23 1.18 1.16 1.15 1.08 0.99 0.91 0.98 1.00 1.03 1.07 1.07 1.09 1.10 1.12 1.10 1.14 1.19 1.22 1.23 1.26 1.29 1.29 1.28 1.28 1.28 1.25 1.16 1.11 1.09 1.08 1.02 1.12 1.42 1.58 1.37 1.39 1.44 1.38 1.48 1.45 1.33 1.28 1.45 1.45 1.41 1.33 1.19 1.15 1.10 1.05 1.01 0.97 0.94 0.93 0.93 0.93 0.92 0.88 0.81 0.75 0.73 0.71 0.68
1.11 1.14 1.18 1.21 1.21 1.20 1.19 1.18 1.18 1.21 1.22 1.21 1.20 1.18 1.10 1.06 1.06 1.11 1.04 1.03 1.10 1.11 1.12 1.10 1.09 1.09 1.10 1.13 1.18 1.20 1.23 1.26 1.29 1.30 1.30 1.30 1.30 1.22 1.13 1.09 1.09 1.11 1.25 1.49 1.61 1.50 1.35 1.40 1.34 1.42 1.47 1.50 1.47 1.42 1.43 1.40 1.30 1.19 1.15 1.09 1.01 1.01 0.98 0.95 0.94 0.94 0.95 0.93 0.88 0.81 0.76 0.74 0.72 0.70
1.12 1.14 1.16 1.17 1.19 1.19 1.17 1.17 1.17 1.19 1.20 1.21 1.21 1.18 1.16 1.15 1.15 1.12 1.11 1.11 1.12 1.11 1.12 1.10 1.07 1.05 1.03 1.04 1.08 1.13 1.17 1.22 1.27 1.30 1.30 1.32 1.33 1.34 1.31 1.23 1.15 1.11 1.17 1.53 1.61 1.56 1.46 1.35 1.38 1.40 1.47 1.50 1.51 1.47 1.35 1.32 1.27 1.17 1.15 1.08 1.03 1.02 0.99 0.94 0.94 0.95 0.95 0.93 0.88 0.79 0.75 0.74 0.73 0.72
1.09 1.16 1.19 1.21 1.23 1.21 1.17 1.16 1.15 1.16 1.18 1.19 1.16 1.14 1.17 1.18 1.18 1.18 1.16 1.14 1.11 1.08 1.07 1.07 1.03 1.01 1.01 1.00 1.01 1.06 1.11 1.19 1.26 1.30 1.34 1.37 1.38 1.37 1.39 1.43 1.43 1.37 1.46 1.56 1.61 1.57 1.47 1.37 1.48 1.49 1.54 1.62 1.50 1.41 1.33 1.22 1.17 1.18 1.09 1.06 1.04 1.04 1.02 0.98 0.95 0.95 0.95 0.92 0.86 0.79 0.75 0.73 0.72 0.73
1.13 1.14 1.16 1.19 1.23 1.23 1.21 1.19 1.18 1.17 1.20 1.18 1.15 1.16 1.20 1.22 1.21 1.20 1.16 1.13 1.10 1.08 1.06 1.03 1.02 0.99 1.01 1.04 1.03 1.04 1.12 1.20 1.27 1.34 1.39 1.39 1.39 1.38 1.39 1.43 1.46 1.50 1.53 1.55 1.56 1.54 1.50 1.45 1.53 1.71 1.75 1.63 1.44 1.29 1.22 1.26 1.21 1.12 1.03 1.06 1.05 1.04 1.03 1.01 0.98 0.96 0.96 0.93 0.84 0.78 0.73 0.70 0.72 0.72
1.16 1.16 1.18 1.20 1.21 1.22 1.23 1.24 1.24 1.23 1.22 1.21 1.19 1.20 1.21 1.22 1.21 1.18 1.14 1.11 1.12 1.08 1.04 1.03 1.05 1.06 1.07 1.09 1.11 1.17 1.22 1.29 1.35 1.34 1.35 1.39 1.41 1.43 1.45 1.46 1.49 1.52 1.54 1.56 1.57 1.58 1.57 1.59 1.69 1.78 1.74 1.62 1.42 1.35 1.27 1.15 1.14 1.09 1.07 1.01 0.98 1.03 1.03 1.02 0.99 0.96 0.95 0.91 0.83 0.78 0.73 0.72 0.71 0.74
1.21 1.22 1.23 1.23 1.22 1.22 1.24 1.25 1.23 1.20 1.20 1.20 1.20 1.21 1.24 1.23 1.20 1.18 1.14 1.12 1.09 1.04 1.06 1.09 1.07 1.10 1.16 1.17 1.21 1.28 1.30 1.24 1.18 1.21 1.23 1.25 1.27 1.31 1.34 1.34 1.38 1.45 1.51 1.56 1.59 1.62 1.67 1.76 1.79 1.76 1.64 1.54 1.47 1.36 1.27 1.16 1.11 1.10 1.08 1.03 1.02 1.04 1.05 1.02 1.00 0.99 0.95 0.88 0.84 0.80 0.79 0.78 0.76 0.75
1.27 1.28 1.28 1.25 1.24 1.26 1.27 1.27 1.25 1.24 1.26 1.25 1.23 1.23 1.24 1.22 1.21 1.22 1.19 1.15 1.11 1.09 1.10 1.12 1.14 1.18 1.22 1.29 1.27 1.20 1.20 1.17 1.20 1.25 1.25 1.23 1.25 1.29 1.33 1.32 1.32 1.37 1.46 1.53 1.59 1.69 1.79 1.83 1.82 1.74 1.57 1.50 1.48 1.40 1.29 1.20 1.10 1.05 1.07 1.08 1.04 0.94 1.00 1.03 1.02 0.99 0.96 0.90 0.87 0.85 0.83 0.81 0.79 0.78
1.40 1.40 1.39 1.36 1.33 1.32 1.30 1.27 1.24 1.22 1.23 1.23 1.21 1.20 1.22 1.22 1.24 1.26 1.28 1.28 1.24 1.18 1.17 1.16 1.19 1.20 1.22 1.20 1.22 1.27 1.27 1.25 1.27 1.32 1.30 1.27 1.28 1.34 1.36 1.30 1.28 1.35 1.40 1.51 1.67 1.83 1.89 1.88 1.80 1.72 1.64 1.55 1.41 1.36 1.31 1.22 1.10 1.04 1.04 1.07 1.06 1.05 1.05 1.01 0.99 0.99 0.98 0.93 0.87 0.84 0.84 0.82 0.79 0.77
1.62 1.56 1.46 1.39 1.35 1.31 1.25 1.21 1.18 1.17 1.18 1.18 1.20 1.19 1.20 1.20 1.21 1.21 1.20 1.13 1.10 1.14 1.17 1.13 1.13 1.15 1.21 1.23 1.29 1.31 1.29 1.29 1.31 1.39 1.37 1.39 1.34 1.37 1.38 1.30 1.33 1.38 1.44 1.58 1.71 1.80 1.85 1.83 1.78 1.72 1.65 1.59 1.51 1.39 1.26 1.16 1.11 1.07 1.01 1.02 1.03 1.01 1.02 1.04 1.02 1.00 0.98 0.92 0.86 0.85 0.83 0.83 0.82 0.80
1.71 1.62 1.51 1.44 1.40 1.38 1.35 1.27 1.20 1.15 1.13 1.11 1.10 1.12 1.16 1.18 1.16 1.14 1.14 1.13 1.13 1.17 1.17 1.16 1.16 1.16 1.21 1.22 1.27 1.29 1.29 1.33 1.39 1.45 1.43 1.38 1.38 1.31 1.30 1.30 1.35 1.53 1.67 1.73 1.78 1.79 1.78 1.75 1.72 1.68 1.62 1.57 1.53 1.44 1.33 1.18 1.08 1.07 1.06 1.04 1.01 0.98 1.01 1.03 1.03 1.02 0.98 0.93 0.89 0.84 0.81 0.80 0.81 0.82
1.73 1.64 1.53 1.47 1.47 1.47 1.47 1.42 1.34 1.27 1.20 1.14 1.10 1.09 1.13 1.16 1.15 1.12 1.11 1.10 1.14 1.15 1.14 1.16 1.18 1.21 1.23 1.23 1.27 1.27 1.29 1.33 1.40 1.44 1.46 1.44 1.37 1.36 1.45 1.49 1.52 1.63 1.72 1.76 1.79 1.79 1.71 1.68 1.62 1.53 1.48 1.45 1.38 1.37 1.39 1.29 1.12 1.08 1.08 1.06 1.04 1.01 1.00 1.02 1.00 0.99 0.98 0.97 0.94 0.86 0.82 0.80 0.79 0.82
1.74 1.69 1.60 1.53 1.50 1.51 1.49 1.48 1.47 1.41 1.30 1.20 1.13 1.11 1.13 1.14 1.17 1.14 1.09 1.13 1.18 1.18 1.19 1.19 1.20 1.22 1.24 1.28 1.33 1.36 1.36 1.35 1.31 1.31 1.35 1.44 1.56 1.68 1.68 1.59 1.57 1.59 1.66 1.76 1.78 1.77 1.73 1.66 1.57 1.44 1.36 1.32 1.23 1.14 1.13 1.28 1.24 1.14 1.05 1.03 1.06 1.03 1.02 1.02 1.03 1.02 0.98 0.95 0.94 0.88 0.80 0.77 0.77 0.81
1.70 1.70 1.65 1.58 1.57 1.55 1.50 1.52 1.51 1.49 1.43 1.30 1.19 1.15 1.14 1.14 1.17 1.20 1.22 1.30 1.31 1.29 1.27 1.27 1.27 1.32 1.38 1.45 1.51 1.55 1.54 1.48 1.37 1.34 1.37 1.55 1.65 1.63 1.56 1.53 1.52 1.60 1.64 1.69 1.76 1.72 1.69 1.60 1.55 1.46 1.37 1.28 1.18 1.08 1.06 1.17 1.21 1.26 1.16 1.06 1.05 1.06 1.04 1.02 0.98 0.94 0.94 0.93 0.90 0.87 0.83 0.81 0.80 0.82
1.68 1.70 1.67 1.63 1.61 1.60 1.59 1.57 1.56 1.54 1.50 1.43 1.29 1.21 1.17 1.15 1.18 1.22 1.31 1.31 1.29 1.30 1.32 1.33 1.38 1.44 1.49 1.54 1.57 1.61 1.64 1.64 1.58 1.47 1.50 1.60 1.55 1.45 1.40 1.39 1.46 1.56 1.59 1.67 1.72 1.75 1.75 1.63 1.54 1.49 1.40 1.29 1.18 1.09 1.04 1.11 1.13 1.17 1.23 1.17 1.06 1.05 1.05 1.00 0.93 0.90 0.91 0.94 0.90 0.91 0.89 0.84 0.83 0.86
1.69 1.69 1.69 1.67 1.67 1.67 1.63 1.61 1.61 1.57 1.54 1.48 1.38 1.26 1.19 1.15 1.15 1.21 1.26 1.28 1.32 1.34 1.37 1.40 1.42 1.48 1.55 1.60 1.65 1.68 1.69 1.68 1.62 1.59 1.63 1.68 1.64 1.48 1.38 1.37 1.40 1.54 1.59 1.61 1.72 1.75 1.70 1.60 1.57 1.51 1.45 1.34 1.20 1.11 1.09 1.08 1.08 1.15 1.22 1.23 1.16 1.08 1.05 1.01 0.95 0.95 0.93 0.92 0.94 0.97 0.96 0.97 0.97 0.96
1.75 1.75 1.75 1.75 1.75 1.75 1.73 1.71 1.69 1.65 1.60 1.53 1.45 1.37 1.27 1.19 1.16 1.18 1.24 1.29 1.32 1.35 1.38 1.41 1.46 1.54 1.62 1.69 1.70 1.74 1.74 1.73 1.74 1.73 1.70 1.70 1.68 1.61 1.50 1.47 1.54 1.55 1.54 1.64 1.73 1.70 1.67 1.61 1.63 1.57 1.51 1.37 1.28 1.28 1.29 1.26 1.23 1.22 1.20 1.22 1.22 1.15 1.08 1.05 0.99 0.96 0.94 0.97 0.98 0.93 0.91 0.94 0.90 0.94
1.78 1.77 1.77 1.81 1.82 1.82 1.79 1.78 1.76 1.71 1.65 1.62 1.54 1.45 1.37 1.31 1.26 1.22 1.24 1.29 1.32 1.34 1.36 1.42 1.49 1.55 1.62 1.70 1.73 1.72 1.70 1.74 1.76 1.74 1.71 1.69 1.68 1.68 1.61 1.57 1.59 1.59 1.57 1.61 1.66 1.62 1.61 1.64 1.64 1.61 1.48 1.40 1.35 1.34 1.27 1.20 1.13 1.13 1.13 1.15 1.18 1.18 1.15 1.12 1.06 1.02 0.98 1.02 1.00 0.95 0.91 0.90 0.89 0.90
1.80 1.80 1.83 1.87 1.87 1.89 1.91 1.87 1.82 1.76 1.72 1.72 1.63 1.51 1.44 1.41 1.37 1.33 1.32 1.35 1.36 1.36 1.38 1.44 1.52 1.61 1.69 1.77 1.81 1.80 1.75 1.73 1.75 1.75 1.74 1.70 1.68 1.69 1.69 1.67 1.62 1.62 1.63 1.61 1.63 1.64 1.70 1.68 1.60 1.52 1.44 1.37 1.29 1.20 1.15 1.14 1.12 1.13 1.13 1.14 1.16 1.17 1.16 1.14 1.14 1.14 1.13 1.09 1.04 0.98 0.96 0.95 0.94 0.88
1.76 1.80 1.84 1.89 1.93 1.97 1.96 1.94 1.91 1.89 1.83 1.80 1.72 1.61 1.52 1.46 1.45 1.40 1.35 1.32 1.32 1.37 1.42 1.49 1.58 1.66 1.73 1.81 1.86 1.85 1.79 1.77 1.81 1.81 1.78 1.77 1.75 1.70 1.69 1.68 1.69 1.71 1.74 1.78 1.75 1.67 1.65 1.59 1.50 1.41 1.36 1.30 1.26 1.25 1.17 1.18 1.17 1.14 1.09 1.08 1.09 1.12 1.13 1.15 1.16 1.18 1.20 1.21 1.18 1.13 1.09 1.02 0.93 0.84
1.72 1.74 1.79 1.89 1.97 1.91 1.85 1.90 1.94 1.97 1.94 1.89 1.81 1.69 1.55 1.48 1.45 1.42 1.38 1.36 1.39 1.45 1.53 1.57 1.63 1.68 1.75 1.83 1.87 1.86 1.86 1.89 1.92 1.85 1.85 1.85 1.84 1.81 1.75 1.73 1.77 1.78 1.74 1.68 1.61 1.61 1.59 1.50 1.44 1.37 1.28 1.26 1.29 1.26 1.22 1.22 1.17 1.13 1.09 1.08 1.09 1.09 1.09 1.14 1.19 1.22 1.25 1.25 1.23 1.22 1.20 1.17 1.12 1.09
1.79 1.76 1.79 1.87 1.95 2.01 1.99 1.96 1.93 1.92 1.93 1.91 1.82 1.70 1.58 1.53 1.51 1.49 1.47 1.49 1.54 1.59 1.62 1.67 1.72 1.77 1.80 1.84 1.85 1.80 1.87 1.97 1.99 1.91 1.92 1.97 1.92 1.80 1.77 1.77 1.76 1.77 1.70 1.65 1.56 1.50 1.47 1.44 1.40 1.37 1.31 1.30 1.31 1.27 1.28 1.27 1.22 1.19 1.15 1.11 1.10 1.14 1.17 1.20 1.20 1.20 1.20 1.20 1.26 1.26 1.22 1.20 1.17 1.15
Wind_Speed
4 4 5 5 5 6 6 6 6 6 5 5 6 6 6 5 4 3 2 2 2 1 1 1 2 4 5 6 7 7 7 7 8 8 8 9 9 10 10 10 11 11 11 11 12 13 13 14 15 16 16 17 17 18 19 19 19 19 19 19 19 19 19 19 20 21 21 22 22 22 22 21 20 20
4 4 4 5 5 6 6 6 6 6 6 6 6 7 6 5 4 4 3 2 2 1 1 2 3 4 5 6 7 7 7 7 8 8 8 9 9 10 10 10 10 10 11 11 12 13 14 15 17 17 17 17 18 18 19 19 19 19 19 19 19 18 19 19 20 21 21 22 23 23 23 22 21 20
3 4 4 4 5 6 7 7 7 7 6 6 6 7 7 6 5 4 4 3 3 2 3 3 4 5 5 6 7 7 7 7 8 8 9 9 10 10 10 10 10 10 11 12 13 13 15 16 18 18 18 18 18 18 19 19 18 18 19 18 18 18 19 19 20 21 22 23 23 23 23 23 22 21
4 4 4 4 5 6 7 7 7 7 7 7 7 7 7 6 6 5 5 5 5 4 4 5 5 5 6 6 7 7 7 8 8 8 9 10 10 10 10 10 11 11 11 12 13 14 15 17 18 18 18 18 18 18 18 18 18 18 18 18 18 18 19 20 20 21 22 23 23 24 24 23 22 21
4 4 4 4 5 6 7 7 8 7 7 7 7 8 8 7 7 7 6 6 7 6 6 6 6 6 7 7 7 7 8 8 8 9 10 10 10 10 10 11 11 11 12 12 13 14 16 17 18 18 18 18 18 18 18 18 18 18 18 18 18 19 19 20 21 22 22 23 24 24 24 24 23 22
6 5 5 5 5 6 7 7 8 8 8 8 8 8 8 8 8 8 8 8 8 8 8 7 7 7 7 7 8 8 8 8 9 9 10 11 11 10 10 11 11 12 12 13 14 15 16 17 18 18 18 18 18 18 18 18 19 18 18 19 19 19 20 20 21 22 23 24 25 25 25 24 24 23
7 7 7 7 6 6 7 7 8 9 9 9 9 9 9 9 9 9 9 9 9 10 10 9 9 8 8 8 8 8 9 9 9 10 10 11 11 11 11 10 11 12 12 13 15 15 16 17 17 17 17 18 18 18 18 19 19 19 19 19 19 19 20 20 21 22 23 24 25 25 25 25 24 24
9 8 8 8 8 8 8 8 8 8 9 9 10 10 10 10 10 10 10 10 10 10 11 11 10 10 10 10 10 10 10 9 9 10 11 11 11 11 11 11 11 12 12 13 15 15 15 16 17 17 17 17 18 18 19 19 20 20 20 20 19 19 20 20 21 22 23 24 25 25 26 25 25 24
11 10 10 10 10 10 10 10 10 10 10 10 10 11 11 11 11 11 11 11 11 11 12 12 11 11 11 11 11 11 11 10 10 10 11 11 11 11 11 11 12 12 12 13 14 15 15 15 16 16 16 17 18 18 19 20 20 21 21 20 20 20 20 21 21 22 23 23 24 25 26 25 25 25
12 12 12 11 11 11 11 11 11 11 11 11 11 11 12 12 12 12 12 12 12 12 12 12 12 12 12 12 12 12 12 12 12 11 11 11 11 11 11 11 11 11 12 13 14 14 14 14 15 15 16 17 18 18 19 20 21 21 21 20 20 20 20 21 21 22 22 23 24 25 25 25 25 25
14 14 13 13 13 13 13 13 12 12 13 13 13 12 12 13 13 13 13 13 13 14 13 13 13 13 13 13 13 13 13 13 12 12 12 12 12 12 11 11 11 11 12 14 14 14 14 14 14 15 16 17 18 18 20 20 21 21 21 21 20 20 20 21 21 22 22 23 24 24 25 24 24 24
16 15 15 15 14 14 14 14 14 14 14 14 14 14 14 14 14 14 14 14 15 15 15 15 14 14 14 14 14 14 14 14 13 12 13 14 13 13 12 12 12 12 13 14 14 14 14 14 15 16 16 17 18 19 20 21 21 21 21 21 21 20 20 21 21 22 22 23 24 24 24 24 24 24
17 17 16 16 16 16 16 16 16 16 15 15 15 15 15 15 15 15 15 15 16 16 16 16 16 15 16 16 15 15 15 15 14 14 14 14 14 14 14 13 13 13 14 14 14 15 15 15 15 16 17 17 18 19 20 21 21 21 21 21 21 21 21 21 21 22 22 23 23 24 24 24 24 24
19 18 18 18 18 17 17 17 17 17 17 17 17 17 16 16 17 17 17 17 16 17 17 17 17 17 17 17 17 16 16 16 16 15 15 15 15 15 15 14 14 14 14 14 15 15 15 15 16 16 17 17 18 19 20 20 21 21 20 20 21 21 21 21 21 22 22 23 23 24 24 24 24 23
20 20 19 19 19 19 18 18 18 18 18 18 18 18 18 18 18 18 18 18 18 18 18 18 18 18 18 18 18 17 17 17 17 16 16 16 16 16 16 15 15 15 15 15 15 15 15 16 16 16 17 17 18 19 19 20 21 21 20 20 20 21 21 21 21 21 22 22 23 23 24 24 24 23
21 21 20 20 20 20 19 19 19 19 19 19 19 19 20 20 20 19 19 19 19 19 19 19 19 19 19 19 19 18 18 18 18 17 17 17 17 17 17 17 16 16 16 16 16 16 16 16 16 17 17 18 18 19 19 20 20 21 20 20 20 20 20 20 21 21 21 22 23 23 24 24 24 23
23 22 22 21 21 21 21 20 20 20 20 20 20 20 20 20 20 21 21 21 21 21 21 21 21 20 20 20 20 19 19 19 19 18 18 18 18 18 18 18 18 17 17 17 17 17 17 17 17 18 18 18 19 19 20 20 20 20 20 20 20 20 20 20 20 21 21 21 22 23 23 23 23 23
24 24 23 23 23 22 22 21 21 21 20 20 20 20 20 20 20 20 21 21 21 21 21 22 22 22 21 21 21 20 20 20 20 20 20 19 19 19 19 19 19 18 18 18 18 18 18 18 18 18 18 19 19 20 20 20 20 20 20 20 20 20 20 20 20 20 20 21 22 22 23 23 23 22
26 25 25 24 24 23 23 23 22 22 22 21 21 21 21 21 20 20 20 21 21 20 21 21 22 22 22 22 22 21 21 21 21 21 21 20 20 20 20 20 19 19 19 19 19 19 19 18 18 19 19 20 20 20 21 21 21 21 20 20 20 19 19 19 20 20 20 20 21 22 22 22 22 22
27 26 26 25 25 25 24 24 24 24 23 23 23 22 22 22 21 21 21 21 21 21 21 21 21 22 22 23 23 22 22 21 21 21 21 21 21 21 21 21 20 20 20 19 19 20 20 19 19 20 20 20 21 21 21 21 21 21 20 19 19 19 19 19 19 20 20 20 21 21 22 22 22 22
28 27 27 26 26 26 26 25 25 25 24 24 24 24 23 23 23 22 22 22 23 22 22 22 22 22 23 23 23 23 23 22 22 22 22 22 21 21 21 21 21 21 20 20 20 20 21 20 20 20 21 21 22 22 22 22 21 21 19 19 18 18 18 18 19 19 20 20 20 21 22 22 21 21
28 28 29 28 27 27 27 27 27 26 26 25 25 25 25 24 24 24 23 23 23 23 23 23 23 23 23 23 23 23 23 23 22 23 23 22 22 22 22 22 22 22 22 21 21 21 21 21 21 21 21 22 22 22 22 22 21 20 19 18 18 18 17 18 18 19 19 19 20 20 21 21 21 21
29 29 29 29 29 29 29 29 28 28 27 27 27 26 26 25 25 25 24 24 23 23 23 23 23 23 23 22 22 22 22 22 22 23 23 22 22 22 23 23 22 22 22 22 21 21 22 22 21 21 22 22 22 22 22 21 20 19 18 18 18 17 17 17 17 18 18 19 19 20 21 21 21 21
29 29 29 29 30 30 30 30 30 29 29 28 28 27 27 27 26 26 25 25 24 24 24 23 23 23 23 22 22 22 22 21 22 22 22 22 23 23 23 23 23 23 23 22 21 22 22 22 22 23 22 22 22 22 22 21 20 19 18 18 17 17 16 16 16 17 18 18 18 19 20 21 21 21
30 30 29 30 30 31 31 31 30 30 30 29 29 28 28 28 28 27 26 26 26 25 25 25 24 24 23 23 23 23 22 22 22 22 23 23 23 23 23 24 24 23 23 23 22 22 23 23 23 23 22 23 23 22 21 20 19 18 18 17 16 16 15 15 15 16 17 17 18 19 19 20 21 21
30 30 30 30 30 30 31 31 31 30 30 29 29 29 29 29 29 28 27 27 27 26 26 25 25 25 25 24 24 24 23 23 23 23 23 23 23 23 24 24 24 24 24 23 23 23 23 23 23 22 22 22 22 21 20 20 19 18 17 16 16 15 15 15 15 16 16 17 17 18 19 19 20 20
31 31 31 31 31 31 30 30 30 30 30 29 29 29 29 29 29 28 28 28 27 27 27 26 26 26 26 25 25 25 24 24 24 24 24 24 24 24 24 24 24 24 24 23 24 24 24 24 23 23 22 22 22 21 21 20 19 18 17 16 15 15 14 14 15 15 16 17 17 18 18 19 19 20
32 32 32 31 31 31 31 31 31 31 30 29 29 29 29 29 29 28 28 28 28 28 27 27 27 27 27 26 26 26 25 25 24 24 24 24 24 24 25 25 25 25 25 24 25 25 24 24 24 23 23 22 22 21 21 19 18 17 17 16 15 14 14 14 15 15 16 16 17 17 18 18 19 20
32 32 32 32 32 32 32 32 31 31 31 31 30 30 30 29 29 29 29 29 29 28 28 27 27 27 27 27 27 27 26 25 25 25 25 24 25 25 25 25 25 25 25 25 25 24 24 24 23 22 22 22 22 21 20 19 18 17 16 15 15 15 15 15 15 16 16 16 17 17 18 18 19 20
32 32 32 32 32 32 31 31 31 31 31 31 31 31 30 30 29 29 29 29 29 29 29 28 28 28 28 27 27 26 26 26 26 25 25 25 25 24 24 24 24 25 25 25 24 23 23 23 22 22 22 21 21 20 19 18 17 16 16 15 15 15 15 15 16 16 16 16 16 17 17 18 19 19
31 31 31 31 31 31 31 31 31 31 31 32 31 31 31 31 30 30 29 29 29 29 29 29 28 28 28 27 27 27 27 26 26 26 25 25 24 24 24 24 24 24 24 24 23 23 22 22 22 21 21 20 19 19 19 18 17 17 16 16 16 16 16 16 16 16 16 16 17 17 18 18 19 19
31 31 31 30 30 30 31 31 31 31 31 32 32 32 31 31 31 31 30 30 29 29 29 29 29 28 28 28 28 27 27 27 26 26 25 25 25 24 24 24 24 24 24 23 23 22 22 21 21 21 20 20 19 19 18 18 17 17 17 17 16 16 16 17 17 16 17 17 17 17 18 19 19 20
31 31 31 31 30 30 30 31 31 31 31 32 32 32 32 32 31 31 31 30 30 29 29 30 30 29 29 29 28 28 28 28 27 27 26 26 25 25 25 25 25 24 24 23 23 22 22 22 21 21 20 20 20 19 18 18 18 18 17 17 17 17 17 17 17 17 17 18 18 18 19 19 20 20
31 31 31 31 30 30 30 30 31 31 32 32 32 32 32 32 32 32 32 31 31 30 30 30 30 30 30 30 29 29 29 28 28 28 28 27 26 26 26 26 26 25 25 24 23 23 22 22 21 21 21 20 20 19 19 19 18 18 18 18 18 18 18 18 18 18 18 19 19 20 20 20 20 21
32 32 32 31 31 31 31 31 31 31 32 32 32 32 32 32 32 32 32 32 32 32 32 31 31 31 31 31 30 30 30 29 29 29 29 28 28 27 27 27 27 27 27 26 25 24 23 22 22 21 21 20 20 20 20 20 19 18 19 19 19 19 19 20 20 20 20 20 20 21 22 22 22 22
33 33 32 32 32 32 32 31 31 31 32 32 33 33 33 32 32 32 33 33 32 32 32 32 32 32 32 32 31 30 30 30 30 30 30 30 29 29 29 28 28 29 28 27 26 25 23 23 23 22 21 20 20 21 21 21 20 20 20 20 20 20 21 21 21 22 22 22 22 23 23 23 23 24
34 33 33 33 33 33 33 33 32 32 32 32 33 33 33 33 33 33 33 33 33 33 33 32 32 32 32 32 31 31 31 31 31 31 31 31 31 31 31 29 29 28 28 28 27 26 24 24 24 23 22 21 21 21 21 21 21 22 22 21 21 22 22 22 23 23 23 24 24 24 25 25 25 25
35 35 34 34 34 34 34 34 33 33 33 32 33 33 34 34 33 33 32 32 32 32 32 32 32 32 32 32 31 31 32 31 32 32 32 32 33 32 32 31 30 29 28 28 28 26 26 26 25 24 23 22 22 22 22 22 22 23 23 23 23 23 23 24 24 25 25 25 26 26 26 27 27 27
35 36 36 36 36 36 35 35 35 34 34 33 33 33 34 34 34 33 32 32 32 33 33 33 33 33 33 33 32 32 33 33 33 33 33 33 32 32 32 32 31 29 28 28 28 27 27 27 26 26 25 24 23 23 23 23 23 24 24 25 25 25 25 25 26 26 27 27 27 28 28 28 29 29
35 36 36 37 37 37 36 36 36 36 35 35 34 34 34 34 34 34 33 33 33 33 33 33 34 34 34 34 33 33 33 33 33 33 33 32 32 31 30 30 28 27 26 27 27 28 28 28 27 27 26 25 25 24 24 24 24 25 25 26 26 26 26 26 27 27 28 28 28 29 29 30 30 30
36 36 36 37 38 37 37 36 36 36 36 36 35 35 35 35 35 35 35 35 35 34 34 34 34 34 34 34 34 34 34 34 34 33 33 33 32 32 31 30 29 28 28 28 28 29 29 28 28 27 27 27 26 25 25 25 26 26 27 27 27 28 28 28 28 29 29 29 29 30 30 31 31 31
37 36 36 37 37 37 37 37 37 37 37 37 37 36 36 36 36 36 36 36 36 35 35 35 35 35 34 34 34 34 35 34 34 34 33 32 32 32 32 32 31 31 30 29 29 29 28 27 27 28 28 28 27 27 27 27 27 28 28 28 28 28 29 29 30 30 30 30 30 31 31 31 31 32
37 37 37 37 37 37 37 38 38 37 38 38 38 37 37 37 36 36 37 37 36 36 36 36 36 36 35 35 35 35 35 35 34 33 33 32 32 33 33 33 32 31 29 29 28 27 27 27 28 28 28 29 29 28 28 29 29 29 29 29 29 29 30 30 31 31 31 32 33 33 33 33 33 33
38 38 38 38 38 37 38 38 38 38 38 38 39 38 38 37 37 37 37 37 36 36 37 37 37 37 36 36 36 36 35 34 34 33 33 33 34 34 34 33 31 29 28 27 27 27 27 28 28 28 29 29 29 29 29 30 30 30 30 30 30 31 31 31 31 32 32 33 35 35 36 36 36 36
39 39 40 40 40 39 39 39 38 38 38 38 39 39 38 38 38 38 37 37 37 37 38 38 38 37 37 37 37 37 36 35 34 34 34 34 34 34 33 31 29 28 28 28 28 28 28 28 28 29 29 30 30 30 31 31 31 31 31 31 31 31 31 31 32 33 33 34 35 36 37 38 38 39
Wind_Direction
189 193 193 192 191 190 187 185 181 177 172 166 164 168 168 166 165 168 169 165 152 122 61 20 353 351 353 353 355 357 1 7 10 8 3 359 358 360 2 4 4 5 7 8 8 7 6 4 3 1 360 359 358 357 356 356 356 356 356 356 356 356 358 359 1 2 2 3 4 4 3 2 1 359
190 197 200 199 195 190 189 190 188 185 182 177 173 174 176 178 182 187 198 211 203 210 304 322 327 334 341 343 344 348 352 358 2 1 358 355 355 355 358 0 1 3 5 6 5 5 4 3 1 359 358 357 355 355 355 355 356 357 358 358 359 359 360 1 1 2 2 2 3 3 2 2 1 360
193 196 198 200 199 194 192 193 193 192 190 189 187 186 188 194 201 205 213 227 238 254 276 294 308 319 327 333 336 339 343 347 352 353 352 351 351 351 354 356 357 0 3 3 1 1 1 0 359 359 358 356 354 354 356 357 358 359 -0 1 1 1 1 1 1 1 1 1 2 2 2 1 0 359
202 201 201 201 201 200 200 199 199 198 197 197 198 199 203 209 216 221 226 239 254 263 271 284 296 303 312 320 327 331 334 337 342 346 346 346 347 348 349 352 355 359 0 359 357 356 357 358 358 358 358 356 356 357 359 0 1 1 1 1 1 -0 360 360 0 1 1 2 2 2 2 1 360 359
213 213 212 210 206 205 206 206 206 206 205 206 208 211 215 220 226 232 239 248 260 267 271 279 286 292 300 308 316 322 326 329 334 340 342 341 342 343 345 348 353 356 356 354 352 353 355 357 356 357 358 359 1 2 3 3 2 1 0 360 359 359 359 359 0 1 2 2 3 3 2 0 360 358
224 224 224 221 217 215 214 213 214 216 216 217 220 222 225 229 233 238 245 252 261 269 275 278 281 286 292 299 308 314 317 320 326 333 335 335 335 337 339 341 346 350 350 350 350 352 354 355 356 358 1 3 4 4 4 4 3 1 360 359 359 359 359 360 1 1 2 2 3 3 2 1 1 360
232 231 232 231 228 226 225 224 223 224 226 227 230 232 233 237 239 241 246 252 259 268 275 279 281 284 288 293 301 306 309 312 318 324 327 328 328 330 332 333 337 341 343 346 349 351 352 354 356 359 2 4 5 5 4 3 2 0 359 358 358 359 359 359 360 0 1 2 3 3 2 2 2 2
237 237 238 238 237 235 235 234 232 232 233 235 237 240 241 243 245 246 250 255 259 265 272 277 280 283 286 290 296 300 301 303 310 317 321 323 324 326 328 328 331 334 337 342 345 346 348 351 353 356 359 2 3 3 2 1 360 358 357 357 357 358 358 358 358 359 0 1 1 2 2 2 2 3
241 242 242 243 243 241 240 240 240 239 240 241 243 245 246 248 250 252 255 258 261 265 270 275 279 282 285 288 291 294 295 297 302 309 314 317 320 322 324 326 329 331 333 337 339 340 343 347 350 353 356 359 360 359 358 357 356 356 356 356 357 357 357 357 358 358 359 359 359 1 2 2 2 2
244 245 245 246 246 245 245 245 245 245 245 246 247 249 250 252 254 256 258 261 264 266 270 274 278 281 284 286 288 289 291 292 297 302 306 310 314 316 318 321 324 326 328 332 334 335 339 343 347 350 353 354 355 355 354 353 353 353 354 355 356 356 356 357 357 357 357 357 358 359 0 0 1 2
245 246 247 247 247 247 248 248 249 249 250 250 251 252 254 255 256 258 260 262 265 267 270 273 276 279 282 284 286 287 287 288 292 297 301 304 309 312 313 314 316 319 323 326 329 332 336 340 343 346 348 349 350 351 351 351 351 351 352 354 354 354 355 356 356 356 356 356 356 358 359 359 360 1
246 247 248 248 248 249 250 250 252 252 253 254 254 255 256 257 258 260 262 264 265 267 269 271 274 277 279 282 284 285 285 285 288 293 297 300 304 306 307 309 310 312 317 321 323 326 329 333 336 339 341 343 345 346 347 348 349 350 350 351 351 352 353 353 354 354 355 355 356 357 358 358 359 360
246 247 248 249 250 250 250 251 253 253 254 255 256 257 258 259 260 262 263 265 266 267 268 270 272 274 276 280 283 283 282 282 285 289 292 295 298 301 302 303 305 308 313 318 319 321 323 326 329 331 334 336 338 340 342 345 347 348 348 348 349 350 350 350 351 353 354 355 355 356 357 357 358 358
246 247 248 249 251 251 252 252 253 254 255 256 257 258 260 261 262 263 265 266 267 268 268 269 271 271 273 276 279 280 281 281 283 285 288 291 294 297 299 300 302 305 310 315 317 318 320 323 325 328 330 332 333 336 338 342 344 345 345 345 346 347 347 348 349 352 353 354 354 355 356 357 357 358
246 247 248 249 251 252 253 254 254 255 256 257 258 259 260 261 263 264 265 266 267 268 269 270 270 270 271 273 276 277 279 280 281 282 284 286 290 293 294 296 298 301 305 310 313 315 317 320 323 326 328 330 332 333 336 339 341 343 342 342 343 344 344 345 347 349 351 352 353 354 355 356 357 357
246 247 248 249 250 251 252 254 255 256 257 258 259 260 261 262 263 264 265 267 267 268 269 270 270 270 271 272 274 275 277 278 279 280 281 283 286 289 290 291 294 297 300 305 308 311 313 316 320 323 325 327 330 331 333 335 338 339 339 339 340 340 341 343 345 346 348 350 352 353 354 355 356 357
246 247 247 248 249 251 252 253 255 257 258 259 260 261 262 263 263 264 265 266 267 269 269 269 270 270 271 272 273 275 276 276 277 277 279 281 283 285 287 289 291 294 297 301 305 307 308 312 316 319 320 323 325 327 330 332 333 334 335 336 336 337 338 340 342 343 345 347 350 352 353 354 355 356
246 247 248 248 249 251 251 253 255 256 258 260 261 262 263 264 265 265 265 266 267 269 269 269 270 270 271 271 272 275 276 275 275 276 277 279 280 282 284 286 289 291 293 296 300 303 304 308 311 314 316 318 320 322 325 328 330 330 331 332 332 333 335 338 339 340 342 345 348 350 351 352 353 354
247 248 248 249 250 251 252 253 254 256 258 259 261 262 264 265 266 266 266 267 268 270 270 270 270 271 271 271 272 274 275 275 275 276 276 277 278 280 282 284 287 289 290 291 295 299 301 303 306 309 312 314 316 318 321 324 326 327 326 327 328 330 332 335 336 338 340 342 345 347 349 349 350 352
247 248 249 250 251 252 253 253 253 254 256 258 259 261 263 265 266 267 267 268 268 269 270 271 271 271 271 271 272 273 274 275 276 276 276 276 276 278 280 282 285 288 289 288 291 295 298 300 303 306 308 310 312 314 316 319 322 323 323 324 325 327 330 332 334 336 338 340 343 345 346 347 348 349
247 248 249 250 251 252 253 254 254 254 255 257 258 260 262 264 266 267 268 268 267 268 269 270 271 271 271 271 271 272 273 273 274 275 274 274 275 276 277 280 284 287 288 288 289 292 295 298 301 303 305 307 309 311 313 316 318 319 320 321 322 324 327 329 332 335 337 339 341 343 344 345 346 347
248 248 248 249 251 253 254 255 254 254 255 257 258 259 261 263 264 266 268 269 268 268 269 270 271 272 272 272 272 273 273 272 272 272 272 273 274 274 276 279 283 285 286 287 287 289 293 296 298 300 302 304 306 308 311 313 314 315 317 317 318 321 324 327 330 333 336 337 339 341 342 343 344 344
249 249 249 250 251 252 254 255 255 255 255 257 258 259 260 262 263 265 267 268 269 270 270 271 272 273 273 274 274 274 274 272 270 270 271 271 272 273 275 279 281 283 285 285 284 286 290 293 295 297 300 303 305 306 308 309 310 311 312 313 314 317 321 324 328 331 334 336 337 339 340 342 342 342
250 250 251 251 251 252 254 255 256 256 256 257 258 259 260 261 262 264 266 267 268 269 270 272 272 273 273 274 274 274 274 272 270 269 270 270 271 273 275 277 278 280 283 284 283 285 289 291 293 295 297 301 304 305 305 306 306 306 308 309 310 314 318 321 325 329 332 334 335 337 338 340 341 341
250 251 252 253 253 253 254 255 256 256 256 256 258 259 260 261 262 264 265 266 267 268 269 270 271 272 272 273 274 274 274 273 271 270 270 270 271 273 275 276 277 278 281 282 281 283 287 290 291 293 294 299 302 303 304 305 304 303 304 305 307 309 314 318 322 326 328 331 333 334 336 339 340 341
251 252 253 253 253 253 254 255 256 256 256 256 258 259 260 261 262 264 265 266 266 267 268 269 270 271 271 271 272 273 274 274 273 272 271 271 272 273 274 276 276 277 280 280 278 281 285 287 289 291 293 297 300 301 302 303 303 301 301 302 303 305 309 313 317 321 325 327 329 332 334 337 339 340
251 252 253 253 253 253 254 254 255 256 257 257 258 259 260 261 262 263 264 265 266 267 267 268 268 269 269 270 271 272 273 274 274 273 273 272 272 273 273 275 275 276 278 277 276 279 283 285 287 290 292 295 298 299 299 299 300 299 297 297 299 301 304 308 311 315 320 323 325 328 332 334 336 337
251 252 252 253 253 253 254 255 256 256 257 258 259 259 260 261 261 262 263 264 265 266 266 267 267 268 268 269 269 270 272 273 274 274 274 273 273 273 273 273 274 275 277 276 276 278 280 282 285 288 290 293 295 296 296 295 295 295 294 292 293 296 299 302 306 310 315 318 321 324 328 331 333 334
251 252 252 253 253 254 255 256 257 258 259 259 260 260 260 261 261 262 263 263 264 265 265 266 266 267 268 268 269 270 271 272 273 273 273 273 273 273 273 273 274 275 277 277 276 276 278 280 283 286 289 291 293 294 294 292 290 292 293 290 288 291 295 298 302 306 310 314 317 321 325 328 329 330
251 252 252 253 254 255 256 257 259 260 260 260 261 261 261 261 262 262 262 263 263 263 264 265 266 266 267 268 269 270 270 270 271 271 272 272 272 272 272 273 274 275 276 276 275 275 275 278 281 284 287 289 291 292 292 290 288 288 290 289 287 288 291 295 298 302 306 310 313 317 321 324 326 327
251 252 253 253 255 256 257 258 260 261 261 262 262 262 262 261 262 262 263 263 263 263 264 265 265 265 266 267 268 269 269 269 269 269 269 270 270 271 271 272 273 274 274 274 273 273 273 276 279 282 284 286 289 290 289 287 285 285 287 288 287 287 288 292 295 298 302 306 310 313 317 320 322 324
251 252 253 254 256 257 258 259 260 261 262 262 263 263 263 262 262 262 262 263 263 263 263 264 264 264 264 265 266 267 267 267 267 267 267 267 267 268 268 269 270 271 271 270 270 271 273 275 278 280 282 285 287 288 287 285 283 283 284 285 286 286 286 289 292 296 299 302 306 310 313 316 319 321
250 251 253 255 256 257 258 258 259 260 261 262 262 263 263 263 262 262 262 262 262 263 263 263 263 263 263 263 264 265 265 265 265 265 265 265 265 265 266 266 267 267 266 266 267 269 272 274 276 278 282 285 286 286 285 283 281 281 282 283 284 284 284 287 290 293 296 300 303 306 309 312 315 317
250 251 253 254 256 257 258 258 259 260 261 261 262 262 262 262 262 262 262 262 262 262 262 262 262 262 262 262 262 262 263 263 264 264 264 264 263 263 263 263 264 264 264 263 264 267 269 272 275 277 280 282 283 284 284 283 282 281 281 282 282 282 283 286 288 291 295 298 300 303 306 309 311 313
250 252 253 255 256 257 257 258 259 261 261 261 261 262 262 262 263 262 262 261 261 261 261 261 261 261 260 260 261 261 262 262 263 263 263 263 262 261 261 261 263 264 264 263 263 264 266 269 272 275 277 279 281 282 282 281 281 282 281 280 281 281 283 285 287 290 293 295 298 301 303 305 308 310
252 253 254 256 257 257 257 258 259 260 262 262 261 261 261 262 262 262 262 261 260 260 260 260 260 260 260 261 261 261 262 262 262 262 262 262 261 261 261 260 262 264 263 261 261 262 263 265 269 271 273 276 280 282 282 279 278 280 280 280 281 282 283 284 286 289 291 293 295 297 300 302 304 306
253 254 255 256 257 258 258 258 259 260 262 263 262 261 261 261 262 262 262 261 261 260 260 260 260 261 261 261 261 261 262 262 261 261 261 262 262 262 260 257 258 261 261 259 259 259 260 263 265 267 270 275 279 282 282 281 278 277 278 280 282 282 283 284 285 287 289 291 292 294 296 299 301 303
254 255 256 256 258 258 259 259 259 260 262 263 263 262 261 260 261 261 262 261 261 260 260 260 260 261 261 261 261 261 261 261 261 261 261 262 262 260 257 254 256 259 258 255 255 255 258 261 263 264 267 273 277 280 282 282 280 278 277 278 281 282 282 283 284 286 287 289 290 292 293 295 298 299
255 255 256 256 257 258 259 259 260 260 262 263 263 263 261 260 260 260 260 260 260 260 260 260 261 261 262 261 261 261 260 260 261 261 261 262 260 257 254 254 255 255 254 253 252 253 256 260 262 263 265 270 274 279 282 283 282 281 279 278 280 282 282 283 284 285 286 287 288 290 292 293 295 297
255 256 256 256 257 258 259 259 260 261 262 263 263 263 262 260 260 259 259 260 260 260 260 260 261 261 261 261 261 260 260 260 261 261 261 261 258 254 253 253 251 250 252 254 252 253 256 259 260 263 267 271 275 280 283 283 282 281 280 279 279 281 282 283 283 285 286 286 288 289 290 292 293 295
256 256 256 256 257 258 258 260 260 261 262 263 263 263 262 261 260 259 259 260 260 260 260 261 261 261 261 261 260 259 259 260 261 260 259 259 256 252 250 250 249 251 255 255 253 254 257 260 262 265 270 273 275 279 282 282 281 280 280 280 280 280 281 282 283 284 285 286 286 288 289 290 292 293
256 256 257 257 257 257 258 260 261 261 262 262 263 263 262 261 261 260 260 260 260 260 260 261 261 262 262 261 260 260 260 260 259 258 258 256 254 251 249 249 251 253 254 254 254 257 260 264 266 268 271 272 274 276 278 279 279 279 280 281 281 281 281 281 282 283 284 284 284 286 288 289 291 292
256 258 259 259 258 258 259 259 260 261 262 262 262 262 262 262 262 261 260 260 260 260 261 261 262 262 261 260 260 261 260 259 258 258 257 255 252 250 249 250 252 253 253 254 257 261 264 268 270 271 271 272 273 274 276 276 277 278 279 280 281 281 281 282 282 283 283 283 283 285 286 288 289 290
258 259 260 260 260 260 260 259 259 260 262 262 262 262 262 262 262 262 262 261 261 261 261 262 262 262 261 260 260 260 259 258 257 257 256 254 252 250 249 250 251 252 253 256 260 264 268 271 272 272 272 272 273 273 274 275 276 278 279 280 281 281 281 282 283 284 284 284 284 285 285 286 287 288
259 260 260 260 260 261 261 260 260 261 262 262 262 262 262 262 263 263 262 262 261 261 262 262 263 263 262 260 259 258 258 257 258 258 256 254 252 250 249 249 250 253 255 257 262 266 269 272 273 272 272 273 273 273 274 274 275 277 278 280 281 281 282 283 284 285 286 287 287 287 286 286 287 287